Location: Radomski Observatory
(40.2854°N, 79.5145°W)
Time: 02:32:46
(UTC-04:00)

Amateur Radio Satellites - All Passes

Search period start: 08 July 2015 02:02
Search period end: 09 July 2015 02:02
Location: Radomski Observatory, 40.2854°N, 79.5145°W

Satellite Date Start Highest point End Downlink Frequencies (MHz)
Time Altitude Azimuth
POLYITAN 1 08 Jul 02:03:31 02:04:35 11° 296° (WNW) 02:05:27 437.675
AIST 1 08 Jul 02:17:37 02:21:12 25° 74° (ENE) 02:24:49
BEESAT 08 Jul 02:27:47 02:32:32 71° 257° (WSW) 02:37:21 436.000
Gurwin Techsat 1B 08 Jul 02:35:17 02:38:25 16° 89° (E) 02:41:48 435.225
KKS-1 08 Jul 02:40:27 02:44:07 26° 69° (ENE) 02:47:51 437.445
SWISSCUBE 08 Jul 02:44:17 02:48:51 44° 262° (W) 02:53:26 437.505
ITUPSAT 1 08 Jul 02:51:34 02:56:06 41° 262° (W) 03:00:39 437.325
SO-50 08 Jul 02:52:10 02:55:29 18° 250° (WSW) 02:58:34 436.795
RS-15 08 Jul 03:08:43 03:19:38 75° 306° (NW) 03:30:57 29.354- 29.394
Cosmos 2491 08 Jul 03:18:37 03:27:18 71° 266° (W) 03:35:55 435.465 / 435.565
STARS 08 Jul 03:22:12 03:26:21 44° 72° (ENE) 03:30:32 437.465
JAS-2 08 Jul 03:29:56 03:34:57 22° 91° (E) 03:40:36 435.910
Oscar 19 08 Jul 03:37:00 03:41:44 38° 290° (WNW) 03:46:27 437.125/150
AO-7 08 Jul 03:44:09 03:48:15 15° 87° (E) 03:52:56 29.400- 29.500
YUBILEINY 08 Jul 03:49:29 03:58:10 84° 96° (E) 04:06:55 435.215
AIST 1 08 Jul 03:55:12 03:58:48 25° 270° (W) 04:02:17
ITAMSAT 1 08 Jul 03:56:48 04:02:03 90° 94° (E) 04:07:16 435.822/435.867
Gurwin Techsat 1B 08 Jul 04:13:39 04:18:54 61° 287° (WNW) 04:24:08 435.225
KKS-1 08 Jul 04:16:50 04:20:41 28° 265° (W) 04:24:30 437.445
Cosmos 2504 08 Jul 04:26:49 04:28:08 11° 79° (E) 04:30:00 435.465 / 435.565
STARS 08 Jul 05:00:15 05:03:03 16° 269° (W) 05:05:42 437.465
MOZHAYETS 4 08 Jul 05:01:43 05:06:18 85° 74° (ENE) 05:10:56
HORYU 2 08 Jul 05:09:22 05:13:51 74° 102° (ESE) 05:18:20 437.375
JAS-2 08 Jul 05:13:41 05:20:29 72° 286° (WNW) 05:28:01 435.910
Cosmos 2491 08 Jul 05:19:35 05:22:45 12° 284° (WNW) 05:25:11 435.465 / 435.565
RS-15 08 Jul 05:25:21 05:34:27 27° 334° (NNW) 05:43:39 29.354- 29.394
AO-7 08 Jul 05:34:03 05:42:29 82° 106° (ESE) 05:50:50 29.400- 29.500
ITAMSAT 1 08 Jul 05:38:50 05:40:53 12° 300° (WNW) 05:42:39 435.822/435.867
CUBESAT XI-V 08 Jul 05:40:58 05:44:14 20° 67° (ENE) 05:47:39 437.345
YUBILEINY 08 Jul 05:50:03 05:56:18 20° 298° (WNW) 06:02:10 435.215
VERMONT LUNAR 08 Jul 05:54:09 05:56:28 20° 152° (SSE) 05:58:50 437.305
Cosmos 2504 08 Jul 06:12:22 06:19:16 81° 96° (E) 06:26:16 435.465 / 435.565
STRAND 1 08 Jul 06:34:31 06:38:41 26° 67° (ENE) 06:42:59 437.568
BEESAT 3 08 Jul 06:45:15 06:49:15 61° 119° (ESE) 06:53:19 437.485
O/OREOS (USA 219) 08 Jul 06:45:36 06:49:32 32° 105° (ESE) 06:53:34 437.305
HORYU 2 08 Jul 06:48:27 06:49:58 11° 297° (WNW) 06:51:13 437.375
JAS-2 08 Jul 07:01:29 07:04:46 14° 301° (WNW) 07:07:45 435.910
CUTE-I 08 Jul 07:01:51 07:06:38 33° 96° (E) 07:11:27 437.470
BEESAT 2 08 Jul 07:03:13 07:07:18 75° 120° (ESE) 07:11:27 435.950
DANDE 08 Jul 07:07:30 07:11:45 19° 93° (E) 07:15:37 436.750
PHONESAT 2.4 08 Jul 07:10:29 07:12:40 16° 149° (SSE) 07:14:55 2401.200-2431.200
AIST 2 08 Jul 07:11:49 07:15:04 22° 113° (ESE) 07:18:26 435.215
CUSAT 1 08 Jul 07:16:48 07:21:47 28° 96° (E) 07:25:52 437.405
CUBESAT XI-V 08 Jul 07:16:53 07:21:23 44° 262° (W) 07:25:54 437.345
PRISM 08 Jul 07:20:57 07:25:04 65° 75° (ENE) 07:29:15 437.425
ISS 08 Jul 07:25:56 07:29:10 85° 143° (SE) 07:32:26 145.825
AO-7 08 Jul 07:28:07 07:34:29 24° 305° (NW) 07:40:32 29.400- 29.500
VERMONT LUNAR 08 Jul 07:29:59 07:33:04 69° 167° (SSE) 07:36:10 437.305
Cubesat XI-IV 08 Jul 07:36:57 07:42:19 72° 102° (ESE) 07:47:40 437.490
RS-15 08 Jul 07:44:22 07:52:13 20° 9° (N) 08:00:26 29.354- 29.394
Cosmos 2504 08 Jul 08:08:18 08:12:32 16° 297° (WNW) 08:16:27 435.465 / 435.565
STRAND 1 08 Jul 08:12:58 08:17:45 37° 263° (W) 08:22:31 437.568
M-CUBED/EXP-1 PRIME 08 Jul 08:15:03 08:17:34 21° 64° (ENE) 08:20:16 437.505
BEESAT 3 08 Jul 08:25:05 08:27:38 15° 318° (NW) 08:30:04 437.485
O/OREOS (USA 219) 08 Jul 08:25:23 08:29:02 24° 302° (WNW) 08:32:37 437.305
GONETS M04 08 Jul 08:27:34 08:35:07 35° 86° (E) 08:42:49
BRITE-PL 08 Jul 08:35:28 08:39:03 27° 95° (E) 08:42:38 437.365/2234.400
CUTE-I 08 Jul 08:41:58 08:46:40 31° 292° (WNW) 08:51:15 437.470
CANX-2 08 Jul 08:42:32 08:43:50 11° 88° (E) 08:45:22 2200.000
BEESAT 2 08 Jul 08:43:43 08:45:55 14° 319° (NW) 08:47:59 435.950
PHONESAT 2.4 08 Jul 08:46:54 08:50:17 58° 163° (SSE) 08:53:40 2401.200-2431.200
DANDE 08 Jul 08:48:05 08:54:52 60° 280° (W) 08:59:58 436.750
AIST 2 08 Jul 08:49:31 08:53:28 36° 309° (NW) 08:57:26 435.215
CUSAT 1 08 Jul 08:59:03 09:04:20 32° 283° (WNW) 09:08:26 437.405
ISS 08 Jul 09:03:32 09:05:55 18° 340° (NNW) 09:08:17 145.825
VERMONT LUNAR 08 Jul 09:06:50 09:09:57 85° 358° (N) 09:13:05 437.305
AUBIESAT-1 08 Jul 09:10:22 09:13:42 85° 252° (WSW) 09:17:14 437.475
HO-68 08 Jul 09:12:34 09:18:51 33° 95° (E) 09:25:15 435.675
SEEDS 08 Jul 09:18:26 09:21:41 21° 93° (E) 09:25:02 437.485
Cubesat XI-IV 08 Jul 09:18:41 09:21:53 16° 298° (WNW) 09:24:51 437.490
AAUSAT CUBESAT 2 08 Jul 09:19:41 09:21:58 15° 90° (E) 09:24:26 437.432
GOMX 1 08 Jul 09:27:12 09:31:19 63° 100° (E) 09:35:27 467.674
Cosmos 2499 08 Jul 09:40:17 09:44:08 16° 81° (E) 09:48:25 435.465 / 435.565
COMPASS 1 08 Jul 09:48:15 09:52:10 36° 97° (E) 09:56:06 437.405
M-CUBED/EXP-1 PRIME 08 Jul 09:49:47 09:52:23 20° 261° (W) 09:55:00 437.505
DOVE 4 08 Jul 09:50:45 09:54:54 71° 101° (E) 09:59:06 437.250
RS-15 08 Jul 09:58:13 10:09:00 42° 41° (NE) 10:20:21 29.354- 29.394
ANTELSAT 08 Jul 10:03:38 10:06:29 18° 67° (ENE) 10:09:27 437.575/2403.000
CINEMA 3 08 Jul 10:05:29 10:09:30 44° 98° (E) 10:13:40 145.822/145.860
Oscar 11 08 Jul 10:09:02 10:12:32 24° 94° (E) 10:16:06 145.826/435.025
ZACube-1 08 Jul 10:10:34 10:12:49 14° 90° (E) 10:15:19 437.345
CUTE 1.7 + AOD 2 08 Jul 10:11:53 10:16:11 74° 283° (WNW) 10:20:27 437.475
TIGRISAT 08 Jul 10:13:37 10:16:51 22° 69° (ENE) 10:20:11 435.000
BRITE-PL 08 Jul 10:14:12 10:17:33 22° 291° (WNW) 10:20:44 437.365/2234.400
CANX-2 08 Jul 10:15:58 10:20:12 59° 285° (WNW) 10:24:26 2200.000
GONETS M04 08 Jul 10:23:15 10:31:44 50° 285° (WNW) 10:40:08
PHONESAT 2.4 08 Jul 10:24:49 10:28:16 84° 5° (N) 10:31:43 2401.200-2431.200
CUBEBUG 2 08 Jul 10:25:34 10:29:28 35° 97° (E) 10:33:29 437.445
DELFI C3 08 Jul 10:40:02 10:43:47 35° 97° (E) 10:47:33 145.870
ISS 08 Jul 10:42:13 10:43:17 11° 0° (N) 10:44:23 145.825
FUNcube-1 08 Jul 10:43:33 10:47:23 33° 97° (E) 10:51:20 145.935
VERMONT LUNAR 08 Jul 10:43:46 10:46:45 42° 200° (SSW) 10:49:44 437.305
QB50P1 08 Jul 10:49:36 10:52:55 23° 69° (ENE) 10:56:19 145.935-145.965
SEEDS 08 Jul 10:53:44 10:57:32 31° 289° (WNW) 11:01:17 437.485
AAUSAT CUBESAT 2 08 Jul 10:53:49 10:57:51 44° 287° (WNW) 11:01:52 437.432
UNISAT 6 08 Jul 10:54:05 10:58:18 65° 75° (ENE) 11:02:32 437.425
HO-68 08 Jul 10:59:59 11:06:46 47° 293° (WNW) 11:13:30 435.675
NANOSAT C BR1 08 Jul 11:01:39 11:05:21 31° 71° (ENE) 11:09:06 145.865
BUGSAT 1 08 Jul 11:05:24 11:08:38 22° 69° (ENE) 11:11:55 437.445
DUCHIFAT 1 08 Jul 11:06:57 11:10:44 34° 72° (ENE) 11:14:35 145.980
UWE-3 08 Jul 11:07:23 11:11:40 84° 102° (ESE) 11:16:02 435.000/436.395/437.385
GOMX 1 08 Jul 11:07:56 11:09:01 11° 296° (WNW) 11:09:52 467.674
POLYITAN 1 08 Jul 11:17:20 11:21:24 48° 73° (ENE) 11:25:29 437.675
COMPASS 1 08 Jul 11:24:35 11:27:36 19° 292° (WNW) 11:30:31 437.405
DX 1 08 Jul 11:28:14 11:32:11 34° 97° (E) 11:36:09 434.975-435.025
HUMSAT D 08 Jul 11:28:50 11:32:51 45° 99° (E) 11:36:56 437.325/437.525
Cosmos 2499 08 Jul 11:29:24 11:36:26 77° 279° (W) 11:43:40 435.465 / 435.565
VELOX 1 08 Jul 11:35:35 11:39:03 23° 94° (E) 11:42:34 145.980
ESTCUBE 1 08 Jul 11:35:59 11:38:40 16° 90° (E) 11:41:31 437.505/2401.250
ANTELSAT 08 Jul 11:39:02 11:43:02 38° 262° (W) 11:47:01 437.575/2403.000
UKube-1 08 Jul 11:42:22 11:46:32 45° 99° (E) 11:50:40 .
CINEMA 3 08 Jul 11:43:53 11:46:27 15° 293° (WNW) 11:48:53 145.822/145.860
Oscar 11 08 Jul 11:44:56 11:48:43 29° 290° (WNW) 11:52:28 145.826/435.025
ZACube-1 08 Jul 11:45:23 11:49:28 47° 287° (WNW) 11:53:38 437.345
POPSAT HIP 1 08 Jul 11:45:43 11:49:58 82° 257° (WSW) 11:54:13 437.405
QB50P2 08 Jul 11:46:09 11:50:23 78° 257° (WSW) 11:54:38 145.880/145.840
TIGRISAT 08 Jul 11:49:42 11:53:29 30° 264° (W) 11:57:14 435.000
50 SAT 08 Jul 11:53:32 11:57:16 42° 98° (E) 12:01:02 437.505
CUBEBUG 2 08 Jul 12:02:51 12:05:59 20° 291° (WNW) 12:09:04 437.445
PHONESAT 2.4 08 Jul 12:02:52 12:06:14 57° 197° (SSW) 12:09:38 2401.200-2431.200
RS-15 08 Jul 12:10:40 12:22:18 67° 244° (WSW) 12:34:17 29.354- 29.394
DELFI C3 08 Jul 12:15:48 12:18:38 18° 292° (WNW) 12:21:20 145.870
ISS 08 Jul 12:18:14 12:20:40 19° 20° (NNE) 12:23:06 145.825
FUNcube-1 08 Jul 12:20:18 12:23:34 21° 291° (WNW) 12:26:45 145.935
AISAT 08 Jul 12:23:27 12:27:53 82° 103° (ESE) 12:32:16 437.250
QB50P1 08 Jul 12:24:57 12:28:41 29° 264° (W) 12:32:21 145.935-145.965
CUBEBUG 1 08 Jul 12:27:37 12:31:49 47° 99° (E) 12:36:00 437.445
NANOSAT C BR1 08 Jul 12:37:56 12:41:15 21° 267° (W) 12:44:27 145.865
BUGSAT 1 08 Jul 12:40:13 12:43:58 30° 264° (W) 12:47:39 437.445
DUCHIFAT 1 08 Jul 12:43:35 12:46:40 19° 267° (W) 12:49:39 145.980
POLYITAN 1 08 Jul 12:55:21 12:57:37 14° 270° (W) 12:59:43 437.675
DX 1 08 Jul 13:04:56 13:08:15 21° 293° (WNW) 13:11:26 434.975-435.025
HUMSAT D 08 Jul 13:05:46 13:08:16 15° 293° (WNW) 13:10:39 437.325/437.525
ESTCUBE 1 08 Jul 13:11:29 13:15:51 47° 288° (WNW) 13:20:10 437.505/2401.250
VELOX 1 08 Jul 13:11:44 13:15:39 31° 290° (WNW) 13:19:29 145.980
SPROUT 08 Jul 13:12:48 13:16:53 43° 98° (E) 13:20:58 437.525
Oscar 19 08 Jul 13:14:25 13:18:58 34° 69° (ENE) 13:23:37 437.125/150
UKube-1 08 Jul 13:19:34 13:22:20 16° 294° (WNW) 13:24:57 .
Cosmos 2499 08 Jul 13:28:26 13:31:12 12° 302° (WNW) 13:33:29 435.465 / 435.565
50 SAT 08 Jul 13:29:21 13:31:34 14° 293° (WNW) 13:33:39 437.505
TISAT 1 08 Jul 13:36:58 13:41:03 51° 100° (E) 13:45:08 437.305
ITAMSAT 1 08 Jul 13:37:18 13:40:26 17° 63° (ENE) 13:43:48 435.822/435.867
PHONESAT 2.4 08 Jul 13:41:39 13:43:51 16° 211° (SSW) 13:45:58 2401.200-2431.200
ISS 08 Jul 13:54:08 13:57:22 77° 221° (SW) 14:00:36 145.825
Gurwin Techsat 1B 08 Jul 13:55:34 13:59:48 26° 67° (ENE) 14:04:11 435.225
YUBILEINY 08 Jul 14:00:30 14:08:36 41° 72° (ENE) 14:16:49 435.215
CUBEBUG 1 08 Jul 14:05:09 14:07:49 16° 294° (WNW) 14:10:20 437.445
PCSat 08 Jul 14:19:05 14:22:42 19° 107° (ESE) 14:26:33 145.827
Cosmos 2491 08 Jul 14:23:58 14:30:56 29° 84° (E) 14:38:11 435.465 / 435.565
RS-15 08 Jul 14:27:28 14:33:02 14° 261° (W) 14:37:26 29.354- 29.394
BEESAT 08 Jul 14:28:52 14:33:04 30° 95° (E) 14:37:19 436.000
AO-7 08 Jul 14:42:21 14:48:27 24° 55° (NE) 14:54:50 29.400- 29.500
SWISSCUBE 08 Jul 14:44:52 14:49:32 48° 99° (E) 14:54:10 437.505
AIST 1 08 Jul 14:47:33 14:50:08 16° 87° (E) 14:52:54
SPROUT 08 Jul 14:49:53 14:52:39 17° 294° (WNW) 14:55:17 437.525
ITUPSAT 1 08 Jul 14:52:21 14:57:04 52° 100° (E) 15:01:45 437.325
Oscar 19 08 Jul 14:54:00 14:58:23 27° 265° (W) 15:02:42 437.125/150
BEESAT 3 08 Jul 15:04:26 15:08:06 31° 50° (NE) 15:11:43 437.485
TISAT 1 08 Jul 15:14:15 15:16:26 14° 295° (WNW) 15:18:26 437.305
ITAMSAT 1 08 Jul 15:14:17 15:19:28 64° 258° (WSW) 15:24:41 435.822/435.867
BEESAT 2 08 Jul 15:22:57 15:26:47 38° 52° (NE) 15:30:34 435.950
SO-50 08 Jul 15:25:24 15:28:49 21° 111° (ESE) 15:32:26 436.795
JAS-2 08 Jul 15:26:38 15:31:32 45° 70° (ENE) 15:36:48 435.910
AIST 2 08 Jul 15:33:58 15:36:30 16° 42° (NE) 15:39:08 435.215
Gurwin Techsat 1B 08 Jul 15:34:36 15:39:36 40° 262° (W) 15:44:36 435.225
YUBILEINY 08 Jul 15:57:21 16:05:31 43° 271° (W) 16:13:33 435.215
Cosmos 2504 08 Jul 15:58:37 16:04:33 25° 68° (ENE) 16:11:04 435.465 / 435.565
PCSat 08 Jul 16:00:23 16:05:43 57° 303° (WNW) 16:11:05 145.827
BEESAT 08 Jul 16:06:45 16:10:51 28° 292° (WNW) 16:14:52 436.000
HORYU 2 08 Jul 16:06:58 16:11:19 63° 74° (ENE) 16:15:42 437.375
KKS-1 08 Jul 16:07:37 16:11:59 56° 100° (E) 16:16:20 437.445
Cosmos 2491 08 Jul 16:18:35 16:27:18 61° 282° (WNW) 16:36:00 435.465 / 435.565
AIST 1 08 Jul 16:23:17 16:27:28 41° 282° (WNW) 16:31:40
SWISSCUBE 08 Jul 16:23:42 16:27:03 19° 295° (WNW) 16:30:14 437.505
ITUPSAT 1 08 Jul 16:31:21 16:34:35 18° 295° (WNW) 16:37:38 437.325
AO-7 08 Jul 16:32:05 16:40:28 81° 254° (WSW) 16:48:54 29.400- 29.500
BEESAT 3 08 Jul 16:42:40 16:45:55 23° 247° (WSW) 16:49:02 437.485
STARS 08 Jul 16:48:20 16:52:44 85° 284° (WNW) 16:57:07 437.465
O/OREOS (USA 219) 08 Jul 16:55:27 16:59:56 59° 66° (ENE) 17:04:26 437.305
MOZHAYETS 4 08 Jul 16:58:06 17:01:36 21° 92° (E) 17:05:12
BEESAT 2 08 Jul 17:01:40 17:04:36 19° 248° (WSW) 17:07:22 435.950
SO-50 08 Jul 17:04:27 17:09:02 47° 308° (NW) 17:13:46 436.795
AIST 2 08 Jul 17:11:21 17:15:31 63° 242° (WSW) 17:19:35 435.215
JAS-2 08 Jul 17:13:11 17:17:05 20° 270° (W) 17:20:59 435.910
Cubesat XI-IV 08 Jul 17:21:27 17:24:18 15° 62° (ENE) 17:27:24 437.490
KKS-1 08 Jul 17:45:47 17:48:12 14° 296° (WNW) 17:50:25 437.445
HORYU 2 08 Jul 17:46:59 17:48:29 11° 272° (W) 17:49:41 437.375
PCSat 08 Jul 17:48:52 17:50:27 11° 324° (NW) 17:51:47 145.827
Cosmos 2504 08 Jul 17:49:47 17:57:20 65° 267° (W) 18:05:25 435.465 / 435.565
CUTE-I 08 Jul 18:23:01 18:28:12 52° 72° (ENE) 18:33:26 437.470
Cosmos 2491 08 Jul 18:23:50 18:26:35 11° 307° (NW) 18:28:36 435.465 / 435.565
AO-7 08 Jul 18:30:02 18:34:42 15° 273° (W) 18:38:45 29.400- 29.500
MOZHAYETS 4 08 Jul 18:34:40 18:38:58 37° 289° (WNW) 18:43:12
O/OREOS (USA 219) 08 Jul 18:36:48 18:38:55 13° 260° (W) 18:40:47 437.305
GONETS M04 08 Jul 18:39:04 18:43:49 16° 58° (ENE) 18:49:03
Cubesat XI-IV 08 Jul 18:58:28 19:03:50 75° 257° (WSW) 19:09:15 437.490
CUBESAT XI-V 08 Jul 19:13:57 19:18:28 47° 99° (E) 19:22:56 437.345
DANDE 08 Jul 19:30:39 19:33:18 72° 260° (W) 19:35:54 436.750
CUSAT 1 08 Jul 19:36:33 19:38:51 27° 264° (W) 19:41:15 437.405
HO-68 08 Jul 19:41:35 19:47:01 25° 60° (ENE) 19:52:38 435.675
BRITE-PL 08 Jul 19:44:52 19:49:42 37° 72° (ENE) 19:54:18 437.365/2234.400
CUTE-I 08 Jul 20:04:45 20:08:39 19° 269° (W) 20:12:23 437.470
SEEDS 08 Jul 20:11:02 20:13:20 15° 66° (ENE) 20:15:48 437.485
STRAND 1 08 Jul 20:23:30 20:28:41 77° 104° (ESE) 20:33:48 437.568
GONETS M04 08 Jul 20:33:38 20:42:22 81° 81° (E) 20:51:05
GOMX 1 08 Jul 20:34:10 20:39:09 67° 75° (ENE) 20:43:50 467.674
PRISM 08 Jul 20:38:58 20:43:09 70° 285° (WNW) 20:47:17 437.425
COMPASS 1 08 Jul 20:39:21 20:42:39 24° 69° (ENE) 20:46:02 437.405
CUBESAT XI-V 08 Jul 20:52:23 20:55:34 18° 294° (WNW) 20:58:34 437.345
DOVE 4 08 Jul 20:55:27 21:00:11 69° 76° (ENE) 21:04:40 437.250
CUTE 1.7 + AOD 2 08 Jul 21:03:56 21:08:07 72° 76° (ENE) 21:12:21 437.475
Oscar 11 08 Jul 21:04:00 21:06:53 18° 67° (ENE) 21:09:55 145.826/435.025
CINEMA 3 08 Jul 21:06:52 21:10:57 39° 73° (ENE) 21:14:57 145.822/145.860
ZACube-1 08 Jul 21:07:52 21:08:55 11° 65° (ENE) 21:10:12 437.345
CANX-2 08 Jul 21:08:02 21:12:14 90° 83° (E) 21:16:30 2200.000
Cosmos 2499 08 Jul 21:19:46 21:27:01 37° 72° (ENE) 21:34:51 435.465 / 435.565
BRITE-PL 08 Jul 21:23:47 21:28:17 26° 266° (W) 21:32:27 437.365/2234.400
CUBEBUG 2 08 Jul 21:23:48 21:27:21 27° 71° (ENE) 21:30:56 437.445
HO-68 08 Jul 21:27:09 21:34:15 66° 257° (WSW) 21:41:22 435.675
DELFI C3 08 Jul 21:27:17 21:30:16 21° 69° (ENE) 21:33:22 145.870
M-CUBED/EXP-1 PRIME 08 Jul 21:29:28 21:33:01 24° 100° (E) 21:36:49 437.505
FUNcube-1 08 Jul 21:39:23 21:42:42 24° 70° (ENE) 21:46:05 145.935
AAUSAT CUBESAT 2 08 Jul 21:43:33 21:47:41 73° 258° (WSW) 21:51:51 437.432
SEEDS 08 Jul 21:44:45 21:48:46 46° 261° (W) 21:52:50 437.485
UWE-3 08 Jul 22:04:04 22:08:13 62° 75° (ENE) 22:12:20 435.000/436.395/437.385
STRAND 1 08 Jul 22:04:40 22:07:17 14° 298° (WNW) 22:09:39 437.568
COMPASS 1 08 Jul 22:14:39 22:18:14 27° 265° (W) 22:21:46 437.405
GOMX 1 08 Jul 22:15:26 22:17:43 13° 271° (W) 22:19:40 467.674
HUMSAT D 08 Jul 22:20:23 22:23:55 29° 71° (ENE) 22:27:30 437.325/437.525
DX 1 08 Jul 22:23:26 22:27:11 29° 69° (ENE) 22:31:00 434.975-435.025
AUBIESAT-1 08 Jul 22:24:29 22:28:53 81° 107° (ESE) 22:33:32 437.475
GONETS M04 08 Jul 22:32:22 22:38:19 20° 279° (W) 22:43:47
VELOX 1 08 Jul 22:33:01 22:36:16 21° 67° (ENE) 22:39:38 145.980
ESTCUBE 1 08 Jul 22:35:45 22:38:14 15° 65° (ENE) 22:40:55 437.505/2401.250
UKube-1 08 Jul 22:36:39 22:40:37 36° 71° (ENE) 22:44:38 .
DOVE 4 08 Jul 22:36:53 22:38:25 11° 271° (W) 22:39:37 437.250
50 SAT 08 Jul 22:37:39 22:40:35 22° 70° (ENE) 22:43:37 437.505
Oscar 11 08 Jul 22:38:47 22:42:49 39° 263° (W) 22:46:52 145.826/435.025
ZACube-1 08 Jul 22:40:40 22:44:49 64° 259° (W) 22:48:57 437.345
CINEMA 3 08 Jul 22:45:21 22:48:21 17° 268° (W) 22:51:09 145.822/145.860
UNISAT 6 08 Jul 22:47:40 22:49:59 14° 90° (E) 22:52:32 437.425
CUBEBUG 2 08 Jul 23:00:37 23:04:04 23° 266° (W) 23:07:23 437.445
DELFI C3 08 Jul 23:01:41 23:05:12 29° 264° (W) 23:08:43 145.870
M-CUBED/EXP-1 PRIME 08 Jul 23:03:51 23:07:50 34° 293° (WNW) 23:11:59 437.505
PCSat 08 Jul 23:06:29 23:09:58 17° 42° (NE) 23:13:36 145.827
Cosmos 2499 08 Jul 23:12:43 23:20:19 46° 270° (W) 23:28:17 435.465 / 435.565
FUNcube-1 08 Jul 23:15:25 23:18:58 26° 265° (W) 23:22:27 145.935
AISAT 08 Jul 23:20:24 23:24:50 69° 75° (ENE) 23:29:17 437.250
CUBEBUG 1 08 Jul 23:23:07 23:27:12 38° 72° (ENE) 23:31:19 437.445
ANTELSAT 08 Jul 23:30:48 23:35:02 42° 98° (E) 23:39:21 437.575/2403.000
POPSAT HIP 1 08 Jul 23:32:30 23:35:08 16° 92° (E) 23:37:54 437.405
QB50P2 08 Jul 23:32:58 23:35:44 17° 92° (E) 23:38:39 145.880/145.840
TIGRISAT 08 Jul 23:40:52 23:45:12 52° 100° (E) 23:49:38 435.000
SO-50 08 Jul 23:56:33 00:00:15 21° 42° (NE) 00:04:00 436.795
HUMSAT D 08 Jul 23:56:34 23:59:43 20° 267° (W) 00:02:45 437.325/437.525
DX 1 08 Jul 23:59:48 00:03:26 25° 265° (W) 00:07:00 434.975-435.025
AUBIESAT-1 09 Jul 00:01:31 00:03:09 12° 300° (WNW) 00:04:36 437.475
SPROUT 09 Jul 00:06:33 00:10:20 32° 71° (ENE) 00:14:11 437.525
VELOX 1 09 Jul 00:08:27 00:12:37 37° 263° (W) 00:16:45 145.980
QB50P1 09 Jul 00:09:55 00:13:57 44° 99° (E) 00:18:00 145.935-145.965
ESTCUBE 1 09 Jul 00:10:14 00:14:42 55° 260° (W) 00:19:11 437.505/2401.250
50 SAT 09 Jul 00:11:56 00:15:07 24° 265° (W) 00:18:16 437.505
UKube-1 09 Jul 00:13:43 00:16:54 19° 267° (W) 00:19:58 .
NANOSAT C BR1 09 Jul 00:22:04 00:26:14 61° 101° (E) 00:30:23 145.865
BUGSAT 1 09 Jul 00:22:33 00:26:19 37° 98° (E) 00:30:04 437.445
UNISAT 6 09 Jul 00:22:47 00:27:06 51° 286° (WNW) 00:31:29 437.425
RS-15 09 Jul 00:25:51 00:32:37 20° 102° (ESE) 00:40:10 29.354- 29.394
DUCHIFAT 1 09 Jul 00:27:14 00:31:25 69° 101° (ESE) 00:35:36 145.980
TISAT 1 09 Jul 00:28:32 00:32:24 36° 72° (ENE) 00:36:18 437.305
Cosmos 2491 09 Jul 00:35:57 00:39:09 13° 55° (NE) 00:43:00 435.465 / 435.565
POLYITAN 1 09 Jul 00:38:43 00:42:57 82° 284° (WNW) 00:47:09 437.675
PCSat 09 Jul 00:48:41 00:54:09 81° 241° (WSW) 00:59:33 145.827
CUBEBUG 1 09 Jul 01:00:29 01:03:44 19° 268° (W) 01:06:50 437.445
AISAT 09 Jul 01:00:53 01:01:58 11° 272° (W) 01:02:45 437.250
POPSAT HIP 1 09 Jul 01:07:16 01:11:13 39° 288° (WNW) 01:15:07 437.405
QB50P2 09 Jul 01:07:54 01:11:49 37° 288° (WNW) 01:15:41 145.880/145.840
ANTELSAT 09 Jul 01:08:27 01:11:33 18° 293° (WNW) 01:14:34 437.575/2403.000
TIGRISAT 09 Jul 01:18:59 01:21:36 15° 294° (WNW) 01:24:03 435.000
Oscar 19 09 Jul 01:28:21 01:30:05 12° 87° (E) 01:32:10 437.125/150
BEESAT 09 Jul 01:34:52 01:39:06 33° 69° (ENE) 01:43:25 436.000
SO-50 09 Jul 01:36:20 01:41:15 61° 241° (WSW) 01:46:01 436.795
SPROUT 09 Jul 01:43:07 01:46:30 21° 267° (W) 01:49:46 437.525
QB50P1 09 Jul 01:46:54 01:49:29 16° 294° (WNW) 01:51:56 145.935-145.965
SWISSCUBE 09 Jul 01:50:47 01:55:25 53° 73° (ENE) 02:00:07 437.505
